Weather History for Newburgh, NY

Change the Weather History Date:

Sunday, June 16, 2013

  Actual Average Record
Temperature  
Mean Temperature 66 °F -  
Max Temperature 77 °F 75 °F 94 °F (1988)
Min Temperature 55 °F 56 °F 39 °F (1978)
Cooling Degree Days 1    
Growing Degree Days 16 (Base 50)    
Moisture  
Dew Point 57 °F    
Average Humidity 71    
Maximum Humidity 88    
Minimum Humidity 47    
Precipitation  
Precipitation 0.00 in - - ()
Sea Level Pressure  
Sea Level Pressure 29.89 in    
Wind  
Wind Speed 6 mph (West)    
Max Wind Speed 14 mph    
Max Gust Speed 25 mph    
Visibility 15 miles    
Events      
Averages and records for this station are not official NWS values.
T = Trace of Precipitation, MM = Missing Value Source: NWS Daily Summary

Daily Weather History Graph

Daily Weather History Graph

Search for Another Location

Airport:

Trip Planner

Search our weather history database for the weather conditions in past years. The results will help you decide how hot, cold, wet, or windy it might be!

Date:

Astronomy

Jun. 16, 2013 Rise Set
Actual Time 5:21 AM EDT 8:32 PM EDT
Civil Twilight 4:47 AM EDT 9:06 PM EDT
Nautical Twilight 4:04 AM EDT 9:50 PM EDT
Astronomical Twilight 3:12 AM EDT 10:42 PM EDT
Moon 1:00 PM EDT (6/16) 12:31 AM EDT (6/16)
Length of Visible Light 16h 18m
Length of Day
15h 10m
Waxing Crescent, 49% of the Moon is Illuminated
Jun 16
Waxing Crescent
Jun 16
First Quarter
Jun 23
Full
Jun 30
Last Quarter
Jul 8
New

Hourly Weather History & Observations

Time (EDT) Temp. Dew Point Humidity Pressure Visibility Wind Dir Wind Speed Gust Speed Precip Events Conditions
12:45 AM 59.0 °F 53.6 °F 82% 30.00 in 10.0 mi Calm Calm - N/A   Partly Cloudy
1:45 AM 57.2 °F 51.8 °F 82% 30.00 in 10.0 mi West 6.9 mph - N/A   Partly Cloudy
3:45 AM 55.4 °F 51.8 °F 88% 29.99 in 10.0 mi West 5.8 mph - N/A   Partly Cloudy
4:45 AM 57.2 °F 50.0 °F 77% 29.98 in 10.0 mi West 6.9 mph - N/A   Scattered Clouds
5:45 AM 55.4 °F 51.8 °F 88% 29.99 in 20.0 mi WNW 5.8 mph - N/A   Mostly Cloudy
6:50 AM 59.0 °F 51.8 °F 77% 29.99 in 20.0 mi WNW 6.9 mph - N/A   Overcast
7:50 AM 60.8 °F 53.6 °F 77% 29.98 in 20.0 mi WNW 5.8 mph - N/A   Overcast
8:45 AM 62.6 °F 53.6 °F 72% 29.97 in 20.0 mi WNW 5.8 mph - N/A   Overcast
11:45 AM 75.2 °F 57.2 °F 53% 29.89 in 20.0 mi SSW 6.9 mph - N/A   Mostly Cloudy
12:45 PM 75.2 °F 53.6 °F 47% 29.87 in 15.0 mi WSW 11.5 mph 20.7 mph N/A   Overcast
1:45 PM 75.2 °F 57.2 °F 53% 29.83 in 15.0 mi SSW 6.9 mph - N/A   Overcast
2:45 PM 75.2 °F 59.0 °F 57% 29.80 in 15.0 mi SSW 9.2 mph - N/A   Mostly Cloudy
3:45 PM 75.2 °F 59.0 °F 57% 29.80 in 15.0 mi WSW 13.8 mph - N/A   Mostly Cloudy
4:45 PM 77.0 °F 60.8 °F 57% 29.78 in 20.0 mi WSW 13.8 mph 25.3 mph N/A   Mostly Cloudy
5:45 PM 75.2 °F 62.6 °F 65% 29.77 in 20.0 mi WSW 13.8 mph - N/A   Mostly Cloudy
6:45 PM 75.2 °F 62.6 °F 65% 29.77 in 20.0 mi West 13.8 mph - N/A   Mostly Cloudy
7:45 PM 73.4 °F 64.4 °F 73% 29.79 in 20.0 mi WNW 6.9 mph - N/A   Mostly Cloudy
8:45 PM 71.6 °F 64.4 °F 78% 29.82 in 10.0 mi WNW 6.9 mph - N/A   Scattered Clouds
9:45 PM 69.8 °F 62.6 °F 78% 29.85 in 10.0 mi WNW 8.1 mph - N/A   Scattered Clouds
10:45 PM 69.8 °F 62.6 °F 78% 29.86 in 10.0 mi WNW 8.1 mph - N/A   Partly Cloudy
11:45 PM 68.0 °F 62.6 °F 83% 29.87 in 10.0 mi WNW 8.1 mph - N/A   Partly Cloudy